KF7MJQ-10 Weather Reports


Display with metric or nautical units.
time (UTC)temp
F
wind
direction
speed
MPH
gust
MPH
rain 1hr
in
rain 24hr
in
rain mn
in
humidity
%
barometer
mb
20260905212038 69 204 0.0 3.0 0.00 0.00 0.00 27 1016.3
20260905211544 70 243 0.0 3.0 0.00 0.00 0.00 27 1016.3
20260905210558 69 200 0.0 1.0 0.00 0.00 0.00 22 1016.4
20260905210057 68 60 0.0 1.0 0.00 0.00 0.00 23 1016.4
20260905205554 67 75 0.0 2.0 0.00 0.00 0.00 21 1016.5
20260905205055 67 235 0.0 3.0 0.00 0.00 0.00 21 1016.5
20260905204552 67 68 1.0 3.0 0.00 0.00 0.00 22 1016.5
20260905204052 67 63 1.0 3.0 0.00 0.00 0.00 21 1016.5
20260905203551 66 89 1.0 3.0 0.00 0.00 0.00 17 1016.6
20260905203057 66 207 0.0 2.0 0.00 0.00 0.00 12 1016.6
20260905202549 67 72 0.0 3.0 0.00 0.00 0.00 2 1016.6
20260905202047 66 82 0.0 3.0 0.00 0.00 0.00 10 1016.7
20260905201557 66 106 0.0 2.0 0.00 0.00 0.00 11 1016.7
20260905201044 66 308 0.0 2.0 0.00 0.00 0.00 11 1016.7
20260905200525 66 191 1.0 2.0 0.00 0.00 0.00 14 1016.7
20260905200024 66 199 0.0 0.0 0.00 0.00 0.00 18 1016.7
20260905195526 67 60 0.0 0.0 0.00 0.00 0.00 21 1016.8
20260905195026 67 211 0.0 0.0 0.00 0.00 0.00 23 1016.8
20260905194520 67 181 0.0 0.0 0.00 0.00 0.00 21 1016.8
20260905194019 67 46 0.0 2.0 0.00 0.00 0.00 20 1016.9
20260905193600 67 81 0.0 3.0 0.00 0.00 0.00 22 1016.9
20260905193058 67 66 0.0 3.0 0.00 0.00 0.00 22 1016.9
20260905192557 67 33 0.0 3.0 0.00 0.00 0.00 23 1017.0
20260905192056 68 68 0.0 2.0 0.00 0.00 0.00 22 1017.0
20260905191554 67 208 0.0 3.0 0.00 0.00 0.00 18 1017.0
20260905191052 67 138 0.0 3.0 0.00 0.00 0.00 15 1017.0
20260905190534 67 46 0.0 3.0 0.00 0.00 0.00 7 1017.0
20260905190033 67 214 0.0 1.0 0.00 0.00 0.00 1 1017.1
20260905185531 67 108 0.0 2.0 0.00 0.00 0.00 1 1017.1
20260905185029 67 98 0.0 1.0 0.00 0.00 0.00 1 1017.1
20260905184531 66 197 0.0 2.0 0.00 0.00 0.00 1 1017.0
20260905184027 65 63 0.0 1.0 0.00 0.00 0.00 1 1017.1
20260905183512 62 63 0.0 0.0 0.00 0.00 0.00 1 1017.0
20260905183006 61 329 0.0 0.0 0.00 0.00 0.00 1 1017.1
20260905182505 60 74 0.0 0.0 0.00 0.00 0.00 1 1017.2
20260905182003 59 74 0.0 0.0 0.00 0.00 0.00 1 1017.2
20260905181503 59 36 0.0 0.0 0.00 0.00 0.00 1 1017.2
20260905181000 59 63 0.0 0.0 0.00 0.00 0.00 1 1017.2
20260905180600 58 236 0.0 0.0 0.00 0.00 0.00 1 1017.2
20260905180048 58 103 0.0 0.0 0.00 0.00 0.00 1 1017.2
20260905175538 57 65 0.0 0.0 0.00 0.00 0.00 1 1017.1
20260905175037 57 63 0.0 0.0 0.00 0.00 0.00 1 1017.2
20260905174535 57 58 0.0 0.0 0.00 0.00 0.00 1 1017.1
20260905174034 57 89 0.0 1.0 0.00 0.00 0.00 1 1017.1
20260905173534 57 113 0.0 1.0 0.00 0.00 0.00 1 1017.1
20260905173014 57 98 0.0 0.0 0.00 0.00 0.00 1 1017.1
20260905172513 57 99 0.0 0.0 0.00 0.00 0.00 1 1017.1
20260905172012 57 88 0.0 0.0 0.00 0.00 0.00 1 1017.1
20260905171510 56 88 0.0 0.0 0.00 0.00 0.00 1 1017.1
20260905171008 56 88 0.0 0.0 0.00 0.00 0.00 1 1017.1
20260905170507 56 87 0.0 0.0 0.00 0.00 0.00 1 1017.2
20260905165551 56 89 0.0 0.0 0.00 0.00 0.00 1 1017.1
20260905165046 56 91 0.0 0.0 0.00 0.00 0.00 1 1017.1
20260905164544 56 94 0.0 0.0 0.00 0.00 0.00 1 1017.1
20260905164043 56 94 0.0 0.0 0.00 0.00 0.00 1 1017.1
20260905163542 56 98 0.0 0.0 0.00 0.00 0.00 1 1017.1
20260905163025 56 97 0.0 0.0 0.00 0.00 0.00 1 1017.0
20260905162522 56 98 0.0 0.0 0.00 0.00 0.00 1 1017.0
20260905162019 56 98 0.0 0.0 0.00 0.00 0.00 1 1017.0
20260905161520 56 98 0.0 0.0 0.00 0.00 0.00 1 1017.0
20260905161021 55 98 0.0 0.0 0.00 0.00 0.00 1 1017.1
20260905160518 55 228 0.0 0.0 0.00 0.00 0.00 1 1017.0
20260905160057 55 228 0.0 0.0 0.00 0.00 0.00 1 1017.0
20260905155555 55 228 0.0 0.0 0.00 0.00 0.00 1 1016.9
20260905155053 55 228 0.0 0.0 0.00 0.00 0.00 1 1016.9
20260905154552 55 228 0.0 0.0 0.00 0.00 0.00 1 1016.9
20260905154051 54 227 0.0 0.0 0.00 0.00 0.00 1 1016.9
20260905153548 54 228 0.0 0.0 0.00 0.00 0.00 1 1016.9
20260905153029 54 229 0.0 0.0 0.00 0.00 0.00 1 1016.9
20260905152628 54 228 0.0 0.0 0.00 0.00 0.00 1 1016.8
20260905152026 54 228 0.0 0.0 0.00 0.00 0.00 1 1016.8
20260905151534 54 229 0.0 0.0 0.00 0.00 0.00 1 1016.7
20260905151024 54 228 0.0 0.0 0.00 0.00 0.00 1 1016.7
20260905150522 54 228 0.0 0.0 0.00 0.00 0.00 1 1016.7
20260905150014 53 227 0.0 0.0 0.00 0.00 0.00 1 1016.7
20260905145501 53 227 0.0 0.0 0.00 0.00 0.00 1 1016.7
20260905145002 53 227 0.0 0.0 0.00 0.00 0.00 1 1016.6
20260905144600 53 228 0.0 0.0 0.00 0.00 0.00 1 1016.6
20260905144058 53 228 0.0 0.0 0.00 0.00 0.00 1 1016.6
20260905143557 53 227 0.0 0.0 0.00 0.00 0.00 1 1016.6
20260905143039 53 227 0.0 0.0 0.00 0.00 0.00 1 1016.6
20260905142540 0 0.0 0.0 0.00 0.00 0.00 1016.6
20260905142035 0 0.0 0.0 0.00 0.00 0.00 1016.5
20260905141534 0 0.0 0.0 0.00 0.00 0.00 1016.6
20260905141034 0 0.0 0.0 0.00 0.00 0.00 1016.5
20260905140532 0 0.0 0.0 0.00 0.00 0.00 1016.5
20260905140013 0 0.0 0.0 0.00 0.00 0.00 1016.5
20260905135511 0 0.0 0.0 0.00 0.00 0.00 1016.4
20260905135009 0 0.0 0.0 0.00 0.00 0.00 1016.4
20260905134508 0 0.0 0.0 0.00 0.00 0.00 1016.3
20260905134007 0 0.0 0.0 0.00 0.00 0.00 1016.4
20260905133506 0 0.0 0.0 0.00 0.00 0.00 1016.4
20260905133047 0 0.0 0.0 0.00 0.00 0.00 1016.3
20260905132545 0 0.0 0.0 0.00 0.00 0.00 1016.2
20260905132044 0 0.0 0.0 0.00 0.00 0.00 1016.1
20260905131544 0 0.0 0.0 0.00 0.00 0.00 1016.1
20260905131041 0 0.0 0.0 0.00 0.00 0.00 1016.1
20260905130540 0 0.0 0.0 0.00 0.00 0.00 1016.0
20260905130031 0 0.0 0.0 0.00 0.00 0.00 1016.0
20260905125519 0 0.0 0.0 0.00 0.00 0.00 1016.0
20260905125018 0 0.0 0.0 0.00 0.00 0.00 1016.0
20260905124517 0 0.0 0.0 0.00 0.00 0.00 1016.0
20260905124016 0 0.0 0.0 0.00 0.00 0.00 1016.1
20260905123513 0 0.0 0.0 0.00 0.00 0.00 1016.0
20260905123112 0 0.0 0.0 0.00 0.00 0.00 1016.0
20260905122554 0 0.0 0.0 0.00 0.00 0.00 1016.0
20260905122057 0 0.0 0.0 0.00 0.00 0.00 1016.0
20260905121552 0 0.0 0.0 0.00 0.00 0.00 1016.1
20260905121049 0 0.0 0.0 0.00 0.00 0.00 1016.1
20260905120549 0 0.0 0.0 0.00 0.00 0.00 1016.0
20260905120047 0 0.0 0.0 0.00 0.00 0.00 1016.1
20260905115530 0 0.0 0.0 0.00 0.00 0.00 1016.0
20260905115026 0 0.0 0.0 0.00 0.00 0.00 1016.0
20260905114525 0 0.0 0.0 0.00 0.00 0.00 1016.0
20260905114023 0 0.0 0.0 0.00 0.00 0.00 1016.0
20260905113522 0 0.0 0.0 0.00 0.00 0.00 1015.9
20260905113020 0 0.0 0.0 0.00 0.00 0.00 1015.8
20260905112502 0 0.0 0.0 0.00 0.00 0.00 1015.8
20260905112059 0 0.0 0.0 0.00 0.00 0.00 1015.7
20260905111604 0 0.0 0.0 0.00 0.00 0.00 1015.6
20260905111058 0 0.0 0.0 0.00 0.00 0.00 1015.7
20260905110555 0 0.0 0.0 0.00 0.00 0.00 1015.8
20260905110054 0 0.0 0.0 0.00 0.00 0.00 1015.8
20260905105536 0 0.0 0.0 0.00 0.00 0.00 1015.8
20260905105037 0 0.0 0.0 0.00 0.00 0.00 1015.7
20260905104533 0 0.0 0.0 0.00 0.00 0.00 1015.8
20260905104035 0 0.0 0.0 0.00 0.00 0.00 1015.7
20260905103530 0 0.0 0.0 0.00 0.00 0.00 1015.7
20260905103027 0 0.0 0.0 0.00 0.00 0.00 1015.7
20260905102511 0 0.0 0.0 0.00 0.00 0.00 1015.7
20260905102008 0 0.0 0.0 0.00 0.00 0.00 1015.7
20260905101510 0 0.0 0.0 0.00 0.00 0.00 1015.6
20260905101005 0 0.0 0.0 0.00 0.00 0.00 1015.6
20260905100504 0 0.0 0.0 0.00 0.00 0.00 1015.6
20260905100005 0 0.0 0.0 0.00 0.00 0.00 1015.7
20260905095544 0 0.0 0.0 0.00 0.00 0.00 1015.7
20260905095043 0 0.0 0.0 0.00 0.00 0.00 1015.7
20260905094541 0 0.0 0.0 0.00 0.00 0.00 1015.7
20260905094039 0 0.0 0.0 0.00 0.00 0.00 1015.7
20260905093539 0 0.0 0.0 0.00 0.00 0.00 1015.6
20260905093037 0 0.0 0.0 0.00 0.00 0.00 1015.7
20260905092518 0 0.0 0.0 0.00 0.00 0.00 1015.6
20260905092018 0 0.0 0.0 0.00 0.00 0.00 1015.5
20260905091515 0 0.0 0.0 0.00 0.00 0.00 1015.4
20260905091013 0 0.0 0.0 0.00 0.00 0.00 1015.4
20260905090512 0 0.0 0.0 0.00 0.00 0.00 1015.5
20260905090011 0 0.0 0.0 0.00 0.00 0.00 1015.4
20260905085553 0 0.0 0.0 0.00 0.00 0.00 1015.4
20260905085053 0 0.0 0.0 0.00 0.00 0.00 1015.4
20260905084549 0 0.0 0.0 0.00 0.00 0.00 1015.4
20260905084048 0 0.0 0.0 0.00 0.00 0.00 1015.5
20260905083549 0 0.0 0.0 0.00 0.00 0.00 1015.5
20260905083044 0 0.0 0.0 0.00 0.00 0.00 1015.4
20260905082528 0 0.0 0.0 0.00 0.00 0.00 1015.3
20260905082024 0 0.0 0.0 0.00 0.00 0.00 1015.3
20260905081523 0 0.0 0.0 0.00 0.00 0.00 1015.4
20260905081021 0 0.0 0.0 0.00 0.00 0.00 1015.4
20260905080520 0 0.0 0.0 0.00 0.00 0.00 1015.3
20260905080019 0 0.0 0.0 0.00 0.00 0.00 1015.3
20260905075600 0 0.0 0.0 0.00 0.00 0.00 1015.3
20260905075504 0 0.0 0.0 0.00 0.00 0.00 1015.3
20260905075058 0 0.0 0.0 0.00 0.00 0.00 1015.3
20260905074557 0 0.0 0.0 0.00 0.00 0.00 1015.3
20260905074055 0 0.0 0.0 0.00 0.00 0.00 1015.2
20260905073553 0 0.0 0.0 0.00 0.00 0.00 1015.3
20260905073052 0 0.0 0.0 0.00 0.00 0.00 1015.3
20260905072539 0 0.0 0.0 0.00 0.00 0.00 1015.2
20260905072037 0 0.0 0.0 0.00 0.00 0.00 1015.2
20260905071536 0 0.0 0.0 0.00 0.00 0.00 1015.1
20260905071033 0 0.0 0.0 0.00 0.00 0.00 1015.1
20260905070533 0 0.0 0.0 0.00 0.00 0.00 1015.0
20260905070035 55 228 0.0 0.0 0.00 0.00 0.00 1 1015.0
20260905065529 55 228 0.0 0.0 0.00 0.00 0.00 1 1015.0
20260905065028 55 228 0.0 0.0 0.00 0.00 0.00 1 1014.9
20260905064529 56 228 0.0 0.0 0.00 0.00 0.00 1 1014.9
20260905064025 56 228 0.0 0.0 0.00 0.00 0.00 1 1014.9
20260905063524 56 228 0.0 0.0 0.00 0.00 0.00 1 1014.9
20260905063022 56 228 0.0 0.0 0.00 0.00 0.00 1 1014.9
20260905062519 56 227 0.0 0.0 0.00 0.00 0.00 1 1014.9
20260905062019 56 227 0.0 0.0 0.00 0.00 0.00 1 1014.8
20260905061529 56 228 0.0 0.0 0.00 0.00 0.00 1 1014.8
20260905061016 56 228 0.0 0.0 0.00 0.00 0.00 1 1014.7
20260905060514 56 227 0.0 0.0 0.00 0.00 0.00 1 1014.7
20260905060013 56 227 0.0 0.0 0.00 0.00 0.00 1 1014.7
20260905055517 56 228 0.0 0.0 0.00 0.00 0.00 1 1014.8
20260905055010 56 228 0.0 0.0 0.00 0.00 0.00 1 1014.7
20260905054509 56 228 0.0 0.0 0.00 0.00 0.00 1 1014.7
20260905054009 56 227 0.0 0.0 0.00 0.00 0.00 1 1014.8
20260905053513 56 228 0.0 0.0 0.00 0.00 0.00 1 1014.7
20260905053009 56 229 0.0 0.0 0.00 0.00 0.00 1 1014.8
20260905052509 55 228 0.0 0.0 0.00 0.00 0.00 1 1014.7
20260905052052 55 228 0.0 0.0 0.00 0.00 0.00 1 1014.7
20260905051550 55 228 0.0 0.0 0.00 0.00 0.00 1 1014.8
20260905051048 55 228 0.0 0.0 0.00 0.00 0.00 1 1014.8
20260905050546 55 228 0.0 0.0 0.00 0.00 0.00 1 1014.7
20260905050045 55 228 0.0 0.0 0.00 0.00 0.00 1 1014.7
20260905045543 56 228 0.0 0.0 0.00 0.00 0.00 1 1014.7
20260905045025 56 228 0.0 0.0 0.00 0.00 0.00 1 1014.8
20260905044528 56 228 0.0 0.0 0.00 0.00 0.00 1 1014.7
20260905044021 56 228 0.0 0.0 0.00 0.00 0.00 1 1014.7
20260905043520 56 228 0.0 0.0 0.00 0.00 0.00 1 1014.7
20260905043019 56 228 0.0 0.0 0.00 0.00 0.00 1 1014.7
20260905042519 56 228 0.0 0.0 0.00 0.00 0.00 1 1014.7
20260905042059 56 228 0.0 0.0 0.00 0.00 0.00 1 1014.6
20260905041557 56 227 0.0 0.0 0.00 0.00 0.00 1 1014.6
20260905041055 56 228 0.0 0.0 0.00 0.00 0.00 1 1014.6
20260905040555 56 228 0.0 0.0 0.00 0.00 0.00 1 1014.7
20260905040053 56 228 0.0 0.0 0.00 0.00 0.00 1 1014.7
20260905035552 56 228 0.0 0.0 0.00 0.00 0.00 1 1014.7
20260905035033 56 227 0.0 0.0 0.00 0.00 0.00 1 1014.5
20260905034531 56 228 0.0 0.0 0.00 0.00 0.00 1 1014.6
20260905034030 56 228 0.0 0.0 0.00 0.00 0.00 1 1014.6
20260905033529 56 228 0.0 1.0 0.00 0.00 0.00 1 1014.5
20260905033027 56 228 0.0 1.0 0.00 0.00 0.00 1 1014.4
20260905032527 56 228 0.0 1.0 0.00 0.00 0.00 1 1014.3
20260905032010 56 255 0.0 1.0 0.00 0.00 0.00 1 1014.3
20260905031512 56 294 0.0 0.0 0.00 0.00 0.00 1 1014.3
20260905031004 57 293 0.0 0.0 0.00 0.00 0.00 1 1014.2
20260905030503 57 294 0.0 0.0 0.00 0.00 0.00 1 1014.3
20260905030007 57 294 0.0 0.0 0.00 0.00 0.00 1 1014.2
20260905025500 58 294 0.0 1.0 0.00 0.00 0.00 1 1014.2
20260905025044 58 293 0.0 1.0 0.00 0.00 0.00 1 1014.2
20260905024541 59 26 0.0 1.0 0.00 0.00 0.00 1 1014.2
20260905024038 60 26 0.0 1.0 0.00 0.00 0.00 1 1014.2
20260905023538 60 26 0.0 1.0 0.00 0.00 0.00 1 1014.2
20260905023038 61 32 0.0 2.0 0.00 0.00 0.00 1 1014.1
20260905022538 61 297 0.0 2.0 0.00 0.00 0.00 1 1014.1
20260905022015 62 326 0.0 1.0 0.00 0.00 0.00 1 1014.2
20260905021527 62 350 0.0 1.0 0.00 0.00 0.00 1 1014.2
20260905021014 62 25 0.0 2.0 0.00 0.00 0.00 1 1014.3
20260905020512 62 250 0.0 0.0 0.00 0.00 0.00 1 1014.3
20260905020010 62 339 0.0 0.0 0.00 0.00 0.00 1 1014.2
20260905015508 62 327 0.0 1.0 0.00 0.00 0.00 1 1014.2
20260905015050 62 326 0.0 1.0 0.00 0.00 0.00 1 1014.1
20260905014548 62 6 0.0 2.0 0.00 0.00 0.00 1 1014.0
20260905014047 62 65 0.0 5.0 0.00 0.00 0.00 1 1014.0
20260905013545 62 65 0.0 5.0 0.00 0.00 0.00 1 1013.9
20260905013106 62 70 0.0 1.0 0.00 0.00 0.00 1 1013.8
20260905012543 62 337 0.0 4.0 0.00 0.00 0.00 1 1013.8
20260905012023 62 72 0.0 4.0 0.00 0.00 0.00 1 1013.7
20260905011523 63 297 0.0 3.0 0.00 0.00 0.00 1 1013.7
20260905011022 63 122 0.0 2.0 0.00 0.00 0.00 1 1013.7
20260905010519 63 44 0.0 4.0 0.00 0.00 0.00 1 1013.7
20260905010017 63 297 0.0 4.0 0.00 0.00 0.00 1 1013.6
20260905005516 64 41 0.0 3.0 0.00 0.00 0.00 1 1013.6
20260905005115 64 74 0.0 2.0 0.00 0.00 0.00 4 1013.6
20260905004635 64 41 0.0 3.0 0.00 0.00 0.00 7 1013.5
20260905004054 64 43 0.0 4.0 0.00 0.00 0.00 11 1013.4
20260905003553 63 79 1.0 4.0 0.00 0.00 0.00 19 1013.4
20260905003052 64 318 0.0 4.0 0.00 0.00 0.00 12 1013.4
20260905002550 64 36 0.0 3.0 0.00 0.00 0.00 17 1013.4
20260905002052 64 74 0.0 2.0 0.00 0.00 0.00 22 1013.2
20260905001530 64 253 0.0 3.0 0.00 0.00 0.00 25 1013.2
20260905001028 64 200 0.0 5.0 0.00 0.00 0.00 21 1013.2
20260905000630 64 61 0.0 9.0 0.00 0.00 0.00 22 1013.2
20260905000026 64 297 0.0 3.0 0.00 0.00 0.00 26 1013.1
20260904235524 64 23 0.0 2.0 0.00 0.00 0.00 16 1013.1
20260904235023 64 302 0.0 3.0 0.00 0.00 0.00 1 1013.2
20260904234504 65 297 0.0 3.0 0.00 0.00 0.00 9 1013.2
20260904234004 64 33 0.0 4.0 0.00 0.00 0.00 16 1013.2
20260904233502 64 313 0.0 4.0 0.00 0.00 0.00 21 1013.3
20260904233100 64 12 0.0 6.0 0.00 0.00 0.00 20 1013.3
20260904232559 64 238 0.0 7.0 0.00 0.00 0.00 24 1013.3
20260904232056 64 91 1.0 7.0 0.00 0.00 0.00 21 1013.3
20260904231537 65 70 0.0 2.0 0.00 0.00 0.00 8 1013.3
20260904231036 65 320 0.0 4.0 0.00 0.00 0.00 7 1013.2
20260904230534 65 25 0.0 4.0 0.00 0.00 0.00 1 1013.4
20260904230033 65 307 0.0 1.0 0.00 0.00 0.00 2 1013.5
20260904225532 66 295 0.0 2.0 0.00 0.00 0.00 7 1013.5
20260904225033 67 321 0.0 3.0 0.00 0.00 0.00 16 1013.4
20260904224510 67 12 0.0 6.0 0.00 0.00 0.00 19 1013.3
20260904224010 67 59 1.0 6.0 0.00 0.00 0.00 19 1013.2
20260904223508 67 36 2.0 5.0 0.00 0.00 0.00 20 1013.2
20260904223006 67 291 0.0 5.0 0.00 0.00 0.00 16 1013.1
20260904222506 67 304 2.0 5.0 0.00 0.00 0.00 20 1013.0
20260904222007 68 90 0.0 2.0 0.00 0.00 0.00 19 1013.0
20260904221553 68 308 0.0 4.0 0.00 0.00 0.00 17 1013.0
20260904221047 68 275 0.0 4.0 0.00 0.00 0.00 16 1013.0
20260904220547 68 287 0.0 4.0 0.00 0.00 0.00 11 1013.0
20260904220048 68 305 0.0 4.0 0.00 0.00 0.00 9 1012.9
20260904215546 68 236 0.0 2.0 0.00 0.00 0.00 1 1013.0
20260904215046 67 298 0.0 2.0 0.00 0.00 0.00 1 1012.9
20260904214530 66 72 0.0 2.0 0.00 0.00 0.00 1 1013.0
20260904214029 66 274 0.0 3.0 0.00 0.00 0.00 1 1013.0
20260904213532 66 232 0.0 3.0 0.00 0.00 0.00 1 1013.0
20260904213037 66 236 0.0 4.0 0.00 0.00 0.00 20 1013.0
20260904212526 67 82 0.0 4.0 0.00 0.00 0.00 25 1012.9